TimeMST,TemperatureF,Dew PointF,Humidity,Sea Level PressureIn,VisibilityMPH,Wind Direction,Wind SpeedMPH,Gust SpeedMPH,PrecipitationIn,Events,Conditions,WindDirDegrees,DateUTC
12:53 AM,32.0,9.0,38,29.30,10.0,SW,8.1,21.9,N/A,,Overcast,220,2011-11-19 07:53:00
1:53 AM,32.0,10.0,40,29.30,10.0,WNW,10.4,23.0,N/A,,Overcast,290,2011-11-19 08:53:00
2:53 AM,28.0,17.1,63,29.37,10.0,NNW,15.0,-,N/A,,Overcast,340,2011-11-19 09:53:00
3:31 AM,26.6,19.4,74,29.63,5.0,NNW,9.2,-,0.00,Snow,Light Snow,340,2011-11-19 10:31:00
3:53 AM,26.1,19.9,78,29.41,5.0,North,6.9,-,0.00,Snow,Light Snow,10,2011-11-19 10:53:00
4:15 AM,26.6,19.4,74,29.63,5.0,North,8.1,-,0.00,Snow,Light Snow,360,2011-11-19 11:15:00
4:53 AM,26.1,18.0,71,29.43,9.0,North,9.2,-,0.00,,Overcast,350,2011-11-19 11:53:00
5:53 AM,27.0,17.1,66,29.46,10.0,North,6.9,-,N/A,,Overcast,360,2011-11-19 12:53:00
6:53 AM,26.1,18.0,71,29.48,10.0,East,4.6,-,N/A,,Overcast,100,2011-11-19 13:53:00
7:53 AM,27.0,17.1,66,29.50,10.0,Calm,Calm,-,N/A,,Overcast,0,2011-11-19 14:53:00
8:53 AM,28.0,17.1,63,29.52,10.0,ENE,3.5,-,N/A,,Overcast,60,2011-11-19 15:53:00
9:53 AM,28.0,18.0,66,29.56,10.0,SSW,11.5,23.0,N/A,,Overcast,200,2011-11-19 16:53:00
10:53 AM,30.0,17.1,59,29.57,10.0,WSW,10.4,20.7,N/A,,Overcast,240,2011-11-19 17:53:00
11:53 AM,28.9,19.0,67,29.56,10.0,SSW,16.1,-,0.00,,Overcast,210,2011-11-19 18:53:00
12:53 PM,28.9,19.0,67,29.56,10.0,SSW,18.4,24.2,0.00,,Overcast,210,2011-11-19 19:53:00
1:53 PM,30.9,17.1,57,29.57,10.0,SW,13.8,25.3,N/A,,Overcast,220,2011-11-19 20:53:00
2:53 PM,30.0,17.1,59,29.65,10.0,SSW,13.8,-,N/A,,Overcast,200,2011-11-19 21:53:00
3:53 PM,30.0,17.1,59,29.69,10.0,SSW,8.1,-,N/A,,Overcast,200,2011-11-19 22:53:00
4:53 PM,30.0,15.1,54,29.71,10.0,SW,6.9,-,N/A,,Overcast,230,2011-11-19 23:53:00
5:53 PM,30.0,14.0,51,29.70,10.0,WSW,3.5,-,N/A,,Overcast,240,2011-11-20 00:53:00
6:53 PM,30.0,12.0,47,29.72,10.0,SSE,4.6,-,N/A,,Overcast,150,2011-11-20 01:53:00
7:53 PM,30.0,14.0,51,29.72,10.0,SE,8.1,-,N/A,,Overcast,140,2011-11-20 02:53:00
8:53 PM,30.0,15.1,54,29.74,10.0,South,11.5,-,N/A,,Overcast,190,2011-11-20 03:53:00
9:53 PM,30.0,15.1,54,29.75,10.0,Variable,4.6,-,N/A,,Overcast,0,2011-11-20 04:53:00
10:53 PM,28.9,15.1,56,29.74,10.0,South,8.1,-,N/A,,Overcast,170,2011-11-20 05:53:00
11:53 PM,28.9,16.0,58,29.75,10.0,SSE,6.9,-,N/A,,Overcast,160,2011-11-20 06:53:00